EW7806 Weather Reports


time (UTC)temp
C
wind
direction
speed
KPH
gust
KPH
rain 1hr
cm
rain 24hr
cm
rain mn
cm
humidity
%
barometer
mb
20260506104008 15 29 0.0 4.8 0.00 0.00 0.00 67 1010.1
20260506102504 14 44 0.0 6.4 0.00 0.00 0.00 69 1010.0
20260506102001 13 50 0.0 3.2 0.00 0.00 0.00 71 1010.1
20260506100456 13 103 0.0 3.2 0.00 0.00 0.00 75 1010.0
20260506095934 13 76 0.0 6.4 0.00 0.00 0.00 76 1010.0
20260506095436 13 30 0.0 6.4 0.00 0.00 0.00 76 1010.1
20260506094934 13 145 0.0 4.8 0.00 0.00 0.00 76 1010.0
20260506093912 13 21 0.0 4.8 0.00 0.00 0.00 74 1010.1
20260506093410 13 255 0.0 1.6 0.00 0.00 0.00 76 1010.0
20260506092910 13 113 0.0 3.2 0.00 0.00 0.00 76 1009.9
20260506092407 13 82 0.0 8.0 0.00 0.00 0.00 76 1009.9
20260506091406 13 34 0.0 4.8 0.00 0.00 0.00 75 1009.9
20260506090905 13 37 0.0 4.8 0.00 0.00 0.00 75 1009.8
20260506085833 13 50 0.0 4.8 0.00 0.00 0.00 72 1009.8
20260506085331 13 288 0.0 4.8 0.00 0.00 0.00 71 1009.9
20260506084833 13 26 0.0 3.2 0.00 0.00 0.00 73 1009.8
20260506084331 13 327 0.0 3.2 0.00 0.00 0.00 74 1009.7
20260506083333 13 81 0.0 3.2 0.00 0.00 0.00 78 1009.7
20260506082835 12 304 0.0 4.8 0.00 0.00 0.00 78 1009.7
20260506082331 12 63 0.0 4.8 0.00 0.00 0.00 78 1009.7
20260506080830 12 67 0.0 3.2 0.00 0.00 0.00 78 1009.7
20260506080355 12 67 0.0 4.8 0.00 0.00 0.00 78 1009.6
20260506073233 11 21 0.0 1.6 0.00 0.00 0.00 81 1009.6
20260506072733 11 49 0.0 1.6 0.00 0.00 0.00 81 1009.6
20260506071732 11 97 0.0 3.2 0.00 0.00 0.00 82 1009.5
20260506071207 11 39 0.0 3.2 0.00 0.00 0.00 82 1009.5
20260506070706 11 65 0.0 3.2 0.00 0.00 0.00 82 1009.5
20260506061613 11 70 0.0 4.8 0.00 0.00 0.00 85 1009.2
20260506061106 11 355 0.0 4.8 0.00 0.00 0.00 85 1009.2
20260506060607 11 6 0.0 1.6 0.00 0.00 0.00 85 1009.1
20260506060109 11 53 0.0 3.2 0.00 0.00 0.00 86 1009.2
20260506051024 10 263 0.0 4.8 0.00 0.00 0.00 86 1009.1
20260506050522 10 66 0.0 3.2 0.00 0.00 0.00 86 1009.2
20260506045023 10 62 0.0 3.2 0.00 0.00 0.00 86 1009.3
20260506044517 10 84 0.0 1.6 0.00 0.00 0.00 86 1009.2
20260506044011 10 57 0.0 1.6 0.00 0.00 0.00 86 1009.4
20260506043505 10 44 0.0 1.6 0.00 0.00 0.00 86 1009.3
20260506043001 10 70 0.0 1.6 0.00 0.00 0.00 86 1009.2
20260506041951 10 136 0.0 0.0 0.00 0.00 0.00 86 1009.2
20260506041436 10 68 0.0 1.6 0.00 0.00 0.00 86 1009.3
20260506040434 10 75 0.0 0.0 0.00 0.00 0.00 86 1009.3
20260506035932 10 75 0.0 0.0 0.00 0.00 0.00 86 1009.4
20260506035432 10 88 0.0 1.6 0.00 0.00 0.00 86 1009.4
20260506034934 10 259 0.0 3.2 0.00 0.00 0.00 86 1009.4
20260506034407 10 226 0.0 1.6 0.00 0.00 0.00 86 1009.4
20260506033906 10 236 0.0 1.6 0.00 0.00 0.00 86 1009.4
20260506033404 10 89 0.0 0.0 0.00 0.00 0.00 86 1009.4
20260506032851 10 91 0.0 1.6 0.00 0.00 0.00 86 1009.5
20260506032336 10 245 0.0 1.6 0.00 0.00 0.00 86 1009.5
20260506031323 10 93 0.0 1.6 0.00 0.00 0.00 86 1009.6
20260506030816 10 58 0.0 1.6 0.00 0.00 0.00 86 1009.6
20260506030308 10 49 0.0 0.0 0.00 0.00 0.00 86 1009.6
20260506025804 10 39 0.0 1.6 0.00 0.00 0.00 86 1009.7
20260506025306 10 137 0.0 1.6 0.00 0.00 0.00 86 1009.7
20260506024243 10 71 0.0 1.6 0.00 0.00 0.00 86 1009.7
20260506023739 10 239 0.0 1.6 0.00 0.00 0.00 85 1009.7
20260506023234 10 240 0.0 1.6 0.00 0.00 0.00 85 1009.7
20260506022724 10 51 0.0 0.0 0.00 0.00 0.00 85 1009.8
20260506022215 10 34 0.0 1.6 0.00 0.00 0.00 85 1009.7
20260506021709 10 260 0.0 1.6 0.00 0.00 0.00 85 1009.8
20260506021207 10 258 0.0 1.6 0.00 0.00 0.00 85 1009.8
20260506020710 10 110 0.0 1.6 0.00 0.00 0.00 86 1009.8
20260506020213 10 245 0.0 1.6 0.00 0.00 0.00 86 1009.9
20260506015637 10 113 0.0 1.6 0.00 0.00 0.00 86 1009.9
20260506015135 10 54 0.0 1.6 0.00 0.00 0.00 86 1009.9
20260506014609 9 61 0.0 1.6 0.00 0.00 0.00 87 1009.9
20260506014108 9 249 0.0 1.6 0.00 0.00 0.00 87 1010.0
20260506013619 9 271 0.0 1.6 0.00 0.00 0.00 87 1010.0
20260506013117 9 252 0.0 1.6 0.00 0.00 0.00 88 1010.1
20260506012606 9 39 0.0 1.6 0.00 0.00 0.00 88 1010.0
20260506012110 8 270 0.0 0.0 0.00 0.00 0.00 88 1010.0
20260506011610 8 270 0.0 0.0 0.00 0.00 0.00 88 1010.1
20260506011107 8 270 0.0 0.0 0.00 0.00 0.00 88 1010.1
20260506010607 8 270 0.0 0.0 0.00 0.00 0.00 87 1010.1
20260506010115 8 270 0.0 0.0 0.00 0.00 0.00 87 1010.1
20260506005605 8 270 0.0 0.0 0.00 0.00 0.00 87 1010.1
20260506004608 8 269 0.0 0.0 0.00 0.00 0.00 87 1010.2
20260506004105 8 269 0.0 0.0 0.00 0.00 0.00 87 1010.2
20260506003604 8 269 0.0 0.0 0.00 0.00 0.00 87 1010.3
20260506002536 8 269 0.0 0.0 0.00 0.00 0.00 87 1010.4
20260506002041 8 269 0.0 0.0 0.00 0.00 0.00 86 1010.4
20260506001023 8 269 0.0 0.0 0.00 0.00 0.00 87 1010.5
20260506000516 8 269 0.0 0.0 0.00 0.00 0.00 86 1010.6
20260506000023 8 269 0.0 0.0 0.00 0.00 0.00 86 1010.6
20260505234519 8 269 0.0 0.0 0.00 0.00 0.00 86 1010.8
20260505234013 8 269 0.0 0.0 0.00 0.00 0.00 86 1010.8
20260505233024 8 269 0.0 0.0 0.00 0.00 0.00 85 1010.9
20260505232520 8 269 0.0 0.0 0.00 0.00 0.00 85 1010.9
20260505231958 8 269 0.0 0.0 0.00 0.00 0.00 85 1010.9
20260505231452 8 269 0.0 0.0 0.00 0.00 0.00 85 1010.9
20260505230434 8 268 0.0 0.0 0.00 0.00 0.00 83 1011.0
20260505225936 8 268 0.0 0.0 0.00 0.00 0.00 83 1011.0
20260505224933 8 248 0.0 0.0 0.00 0.00 0.00 82 1010.9
20260505223939 9 248 0.0 0.0 0.00 0.00 0.00 82 1011.0
20260505223435 9 248 0.0 0.0 0.00 0.00 0.00 82 1011.1
20260505222919 9 248 0.0 0.0 0.00 0.00 0.00 82 1011.1
20260505222416 9 248 0.0 0.0 0.00 0.00 0.00 82 1011.1
20260505221915 9 248 0.0 0.0 0.00 0.00 0.00 82 1011.2
20260505221407 9 248 0.0 0.0 0.00 0.00 0.00 82 1011.1
20260505220915 9 248 0.0 0.0 0.00 0.00 0.00 82 1011.2
20260505215840 9 248 0.0 0.0 0.00 0.00 0.00 82 1011.3
20260505215332 9 248 0.0 0.0 0.00 0.00 0.00 82 1011.3
20260505214831 9 248 0.0 0.0 0.00 0.00 0.00 82 1011.4
20260505214314 9 249 0.0 0.0 0.00 0.00 0.00 82 1011.4
20260505213314 8 249 0.0 0.0 0.00 0.00 0.00 82 1011.5
20260505212803 8 249 0.0 0.0 0.00 0.00 0.00 82 1011.5
20260505212306 8 248 0.0 0.0 0.00 0.00 0.00 81 1011.5
20260505211803 8 249 0.0 0.0 0.00 0.00 0.00 81 1011.5
20260505211253 8 249 0.0 0.0 0.00 0.00 0.00 81 1011.5
20260505210744 9 249 0.0 0.0 0.00 0.00 0.00 80 1011.5
20260505210233 9 248 0.0 0.0 0.00 0.00 0.00 80 1011.4
20260505205713 9 248 0.0 1.6 0.00 0.00 0.00 80 1011.5
20260505205205 9 240 0.0 1.6 0.00 0.00 0.00 79 1011.5
20260505204709 9 240 0.0 1.6 0.00 0.00 0.00 79 1011.5
20260505204205 9 240 0.0 1.6 0.00 0.00 0.00 79 1011.4
20260505203704 9 240 0.0 1.6 0.00 0.00 0.00 79 1011.5
20260505202633 9 242 0.0 1.6 0.00 0.00 0.00 78 1011.5
20260505201608 9 203 0.0 1.6 0.00 0.00 0.00 78 1011.4
20260505201107 9 254 0.0 1.6 0.00 0.00 0.00 78 1011.3
20260505200610 10 114 0.0 1.6 0.00 0.00 0.00 78 1011.3
20260505195105 10 242 0.0 1.6 0.00 0.00 0.00 78 1011.2
20260505194607 10 49 0.0 1.6 0.00 0.00 0.00 78 1011.3
20260505194040 10 102 0.0 3.2 0.00 0.00 0.00 78 1011.3
20260505193035 10 51 0.0 1.6 0.00 0.00 0.00 77 1011.2
20260505192039 10 51 0.0 4.8 0.00 0.00 0.00 76 1011.2
20260505191533 10 246 0.0 4.8 0.00 0.00 0.00 76 1011.2
20260505191032 10 89 0.0 4.8 0.00 0.00 0.00 76 1011.2
20260505190526 10 108 0.0 1.6 0.00 0.00 0.00 75 1011.2
20260505185518 10 30 0.0 1.6 0.00 0.00 0.00 74 1011.1
20260505185030 11 91 0.0 3.2 0.00 0.00 0.00 74 1011.1
20260505184506 11 70 0.0 3.2 0.00 0.00 0.00 74 1011.1
20260505184007 11 32 0.0 3.2 0.00 0.00 0.00 74 1011.0
20260505183003 11 5 0.0 3.2 0.00 0.00 0.00 75 1011.1
20260505182457 11 46 0.0 3.2 0.00 0.00 0.00 74 1011.1
20260505181451 11 240 0.0 3.2 0.00 0.00 0.00 73 1011.1
20260505180433 11 48 0.0 1.6 0.00 0.00 0.00 72 1011.2
20260505175933 11 42 0.0 1.6 0.00 0.00 0.00 71 1011.1
20260505174933 11 46 0.0 3.2 0.00 0.00 0.00 71 1011.1
20260505174414 11 110 0.0 9.7 0.00 0.00 0.00 72 1011.1
20260505173917 11 60 0.0 9.7 0.00 0.00 0.00 71 1011.2
20260505173406 12 27 0.0 3.2 0.00 0.00 0.00 71 1011.1
20260505172905 12 323 0.0 4.8 0.00 0.00 0.00 71 1011.1
20260505172404 12 278 0.0 4.8 0.00 0.00 0.00 71 1011.1
20260505171907 12 65 0.0 3.2 0.00 0.00 0.00 69 1011.1
20260505171406 12 92 0.0 6.4 0.00 0.00 0.00 70 1011.2
20260505170904 12 215 0.0 6.4 0.00 0.00 0.00 70 1011.2
20260505170410 12 9 0.0 1.6 0.00 0.00 0.00 69 1011.1
20260505165905 12 3 0.0 4.8 0.00 0.00 0.00 69 1011.1
20260505164914 12 48 0.0 4.8 0.00 0.00 0.00 70 1011.2
20260505164405 12 314 0.0 3.2 0.00 0.00 0.00 70 1011.2
20260505163407 13 229 0.0 3.2 0.00 0.00 0.00 70 1011.2
20260505162907 13 62 0.0 4.8 0.00 0.00 0.00 70 1011.2
20260505162404 13 53 0.0 4.8 0.00 0.00 0.00 72 1011.2
20260505161332 13 49 0.0 4.8 0.00 0.00 0.00 70 1011.1
20260505160833 13 186 0.0 4.8 0.00 0.00 0.00 71 1011.1
20260505152802 14 206 0.0 3.2 0.00 0.00 0.00 69 1011.1
20260505151809 14 203 0.0 4.8 0.00 0.00 0.00 67 1011.2
20260505151306 14 53 0.0 3.2 0.00 0.00 0.00 66 1011.2
20260505150806 14 179 0.0 1.6 0.00 0.00 0.00 68 1011.2
20260505150306 13 59 0.0 6.4 0.00 0.00 0.00 65 1011.0
20260505130107 15 36 0.0 8.0 0.00 0.00 0.00 62 1011.7
20260505124534 16 256 0.0 6.4 0.00 0.00 0.00 61 1011.7
20260505124038 15 53 0.0 6.4 0.00 0.00 0.00 60 1011.6
20260505123534 16 262 0.0 4.8 0.00 0.00 0.00 60 1011.7
20260505123040 16 51 0.0 3.2 0.00 0.00 0.00 60 1011.7
20260505122530 16 246 0.0 6.4 0.00 0.00 0.00 60 1011.7
20260505121525 15 17 0.0 6.4 0.00 0.00 0.00 61 1011.9
20260505121023 15 91 0.0 6.4 0.00 0.00 0.00 60 1011.9
20260505120524 15 32 0.0 6.4 0.00 0.00 0.00 62 1011.8
20260505120019 15 56 0.0 8.0 0.00 0.00 0.00 62 1011.9
20260505115516 15 242 0.0 8.0 0.00 0.00 0.00 62 1011.9
20260505114519 15 302 0.0 12.9 0.00 0.00 0.00 61 1011.9
20260505113007 16 280 0.0 3.2 0.00 0.00 0.00 63 1012.1
20260505112503 15 229 0.0 3.2 0.00 0.00 0.00 64 1012.2
20260505111945 15 14 0.0 4.8 0.00 0.00 0.00 61 1012.1
20260505111432 15 253 0.0 4.8 0.00 0.00 0.00 61 1012.2
20260505110934 16 45 0.0 4.8 0.00 0.00 0.00 61 1012.2
20260505110435 15 66 0.0 3.2 0.00 0.00 0.00 62 1012.2